User: anonymous   Login
Location: ??
(35.5052°N, 139.7262°E)
Time: 17:17:18
(UTC+00:00)
Language:

PAYLOAD A - Orbit

View from above orbital plane
View from above orbital plane
View from above satellite
View from above satellite

Ground track
Ground track

The orbit data is extracted from the following two-line orbital elements,

1 27840U 03031A   21264.64947263 -.00000014  00000-0  91960-5 0  9990
2 27840  98.3843 230.4084 0099283 113.9996 247.1623 14.38966538957197
Epoch (UTC): 21 September 2021 15:35:14
Eccentricity: 0.0099283
inclination: 98.3843°
perigee height: 691 km
apogee height: 833 km
right ascension of ascending node: 230.4084°
argument of perigee: 113.9996°
revolutions per day: 14.38966538
mean anomaly at epoch: 247.1623°
orbit number at epoch: 95719

The dashed part of the orbit path shows where the satellite is in the earth's shadow,  

DLR